Location: Ravensburg
(47.7866°N, 9.6124°E)
Time: 09:26:43
(UTC+02:00)

YUBILEINY - Pass Details

Date: 20 March 2026
Orbit: 1477 x 1509 km, 82.5° (Epoch: 17 April)

Event Time Altitude Azimuth Distance (km) Brightness Sun altitude
Rises 01:43:04 0° 352° (N) 4,620 ? -39.8°
Reaches altitude 10° 01:46:23 10° 2° (N) 3,633 ? -39.6°
Maximum altitude 01:54:07 34° 65° (ENE) 2,262 ? -39.0°
Enters shadow 02:00:31 14° 122° (ESE) 3,267 ? -38.5°
